This demonstration page uses our WeatherBlox Daily Observations layout. Learn more.

Left ArrowRight Arrow

44.31136, -96.79839

Hourly Observations for August 28, 2022

Temp ( °F °C ) Dew Point ( °F °C ) Humidity (%) Winds ( mph kmh ) Pressure ( in mb ) Visibility ( mi km ) Precip ( " mm )
12:56 am 00:56 Clear 66 18.9 65 18.3 96 96 S 10 17 29.70 1006 10 16 0.00 0.00
1:56 am 01:56 Clear 64 17.8 64 17.8 100 100 SSE 10 17 29.67 1005 10 16 0.00 0.00
2:56 am 02:56 Clear 63 17.2 63 17.2 100 100 SSE 10 17 29.67 1005 8 13 0.00 0.00
3:37 am 03:37 Partly Cloudy 63 17 63 17 100 100 SSE 10 17 29.63 1003 7 11 0.00 0.00
3:47 am 03:47 Mostly Cloudy 63 17 63 17 100 100 SE 12 19 29.63 1003 7 11 0.00 0.00
3:56 am 03:56 Cloudy 63 17.2 63 17.2 100 100 SSE 12 19 29.65 1004 7 11 0.00 0.00
4:17 am 04:17 Cloudy 64 18 64 18 100 100 SSE 13 20 29.61 1003 7 11 0.00 0.00
4:56 am 04:56 Cloudy 65 18.3 65 18.3 100 100 S 14 22 29.64 1004 7 11 0.00 0.00
5:56 am 05:56 Mostly Cloudy 64 17.8 64 17.8 100 100 SSE 13 20 29.62 1003 9 14 0.00 0.00
6:56 am 06:56 Cloudy with Mist and Fog 65 18.3 65 18.3 100 100 SSE 12 19 29.63 1004 6 10 0.00 0.00
7:56 am 07:56 Cloudy with Mist and Fog 66 18.9 66 18.9 100 100 SSE 16 26 29.63 1003 4 6 0.00 0.00
8:56 am 08:56 Cloudy with Mist and Fog 67 19.4 67 19.4 100 100 SSE 12 19 29.62 1003 5 8 0.00 0.00
9:56 am 09:56 Cloudy 68 20 67 19.4 96 96 S 15 24 29.61 1003 7 11 0.00 0.00
10:42 am 10:42 Cloudy 72 22 68 20 88 88 SSE 14 22 29.54 1000 10 16 0.00 0.00
10:56 am 10:56 Cloudy 71 21.7 67 19.4 87 87 SSE 17 28 29.61 1003 10 16 0.00 0.00
11:56 am 11:56 Cloudy 76 24.4 67 19.4 74 74 SSE 18 30 29.60 1002 10 16 0.00 0.00
12:43 pm 12:43 Partly Cloudy 79 26 68 20 70 70 S 18 30 29.50 999 10 16 0.00 0.00
12:56 pm 12:56 Mostly Cloudy 80 26.7 69 20.6 69 69 S 14 22 29.59 1002 10 16 0.00 0.00
1:30 pm 13:30 Partly Cloudy 82 28 70 21 66 66 S 13 20 29.49 998 10 16 0.00 0.00
1:56 pm 13:56 Mostly Sunny 85 29.4 70 21.1 61 61 S 14 22 29.59 1002 10 16 0.00 0.00
2:56 pm 14:56 Mostly Cloudy 87 30.6 71 21.7 59 59 S 16 26 29.58 1002 10 16 0.00 0.00
3:56 pm 15:56 Mostly Cloudy 86 30 71 21.7 61 61 SSW 8 13 29.58 1002 10 16 0.00 0.00
4:47 pm 16:47 Mostly Cloudy 86 30 70 21 59 59 NW 16 26 29.48 998 10 16 0.00 0.00
4:56 pm 16:56 Mostly Sunny 86 30 70 21.1 59 59 WNW 16 26 29.59 1002 10 16 0.00 0.00
5:56 pm 17:56 undefined 85 29.4 67 19.4 55 55 undefined N/A N/A N/A 0.00 0.00

Powered by AerisWeather